Regional Weather Roundup
Issued by NWS

Home | Current Version | Previous Version | Text Only | Print | Product List | Glossary On
Versions: 1 2 3 4 5 6 7 8 9 10 11 12 13 14 15 16 17 18 19 20 21 22 23 24 25 26 27 28 29 30 31 32 33 34 35 36 37 38 39 40 41 42 43 44 45 46 47 48 49 50
000
ASUS43 KTOP 300359
RWRKS

WEATHER ROUNDUP FOR KANSAS
NATIONAL WEATHER SERVICE GOODLAND KS
1100 PM CDT MON MAY 29 2017

NOTE:  "FAIR" INDICATES FEW OR NO CLOUDS BELOW 12,000 FEET WITH NO
SIGNIFICANT WEATHER AND/OR OBSTRUCTIONS TO VISIBILITY.

KSZ001>006-013>018-027>032-041>047-300500-
NORTHWEST KANSAS

CITY           SKY/WX    TMP DP  RH WIND       PRES   REMARKS
GOODLAND       PTCLDY    56  48  74 W8        30.16R
HAYS           CLEAR     62  50  64 CALM      30.09R
HILL CITY      PTCLDY    58  51  78 CALM      30.10R
RUSSELL        CLEAR     61  51  70 S6        30.07R
$$

KSZ061>065-074>080-084>089-300500-
SOUTHWEST KANSAS

CITY           SKY/WX    TMP DP  RH WIND       PRES   REMARKS
DODGE CITY     CLOUDY    65  49  56 E5        30.12R
ELKHART          N/A     56  46  69 MISG        N/A
GARDEN CITY    TSTM      61  51  70 W24G38    30.19R
GREAT BEND     CLOUDY    61  52  72 SW5       30.09S
LIBERAL        LGT RAIN  59  54  83 N13       30.18R
$$

KSZ066>073-081>083-090>101-300500-
SOUTHEAST KANSAS

CITY           SKY/WX    TMP DP  RH WIND       PRES   REMARKS
CHANUTE        CLEAR     61  54  77 CALM      30.04R
COFFEYVILLE    CLEAR     65  57  75 NW3       30.03R
HUTCHINSON     CLEAR     60  51  72 CALM      30.07R
MEDICINE LODGE   N/A     68  49  50 CALM      30.07R
NEWTON         CLEAR     65  49  56 NW3       30.08R
PARSONS        CLEAR     61  56  83 CALM      30.05R
WICHITA INTL   CLEAR     71  50  47 N3        30.06R
WICHITA JABRA  CLEAR     67  49  52 N7        30.07R
WINFIELD       CLEAR     67  51  56 N3        30.08R
$$

KSZ007>012-019>026-033>040-048>060-102>105-300500-
NORTHEAST KANSAS

CITY           SKY/WX    TMP DP  RH WIND       PRES   REMARKS
CONCORDIA      CLEAR     64  43  46 CALM      30.07R
EMPORIA        CLEAR     64  54  69 W3        30.05R
LAWRENCE       CLEAR     59  54  83 NW7       30.04R
MANHATTAN      CLEAR     58  51  78 CALM      30.05R
OLATHE IND     CLEAR     64  50  60 NW8       30.04R
OLATHE EXE     CLEAR     68  50  52 N5        30.03R
SALINA         CLEAR     65  51  60 SW3       30.07R
TOPEKA BILLARD CLEAR     66  49  54 N3        30.04R
TOPEKA FORBES  CLEAR     64  50  60 N7        30.04R
$$



USA.gov is the U.S. government's official web portal to all federal, state and local government web resources and services.